Regional Weather Roundup
Issued by NWS Northern Indiana

Home | Current Version | Previous Version | Graphics & Text | Print | Product List | Glossary On
Versions: 1 2 3 4 5 6 7 8 9 10 11 12 13 14 15 16 17 18 19 20 21 22 23 24 25 26 27 28 29 30 31 32 33 34 35 36 37 38 39 40 41 42 43 44 45 46 47 48 49 50
000
ASUS43 KIWX 241800
RWRIWX

KIWX WEATHER ROUNDUP
NATIONAL WEATHER SERVICE NORTHERN INDIANA
200 PM EDT FRI OCT 24 2014

NOTE: "FAIR" INDICATES FEW OR NO CLOUDS BELOW 12,000 FEET WITH NO
SIGNIFICANT WEATHER AND/OR OBSTRUCTIONS TO VISIBILITY.

* THESE STATIONS ARE NOT UNDER NWS QUALITY CONTROL. THEY ALSO MAY NOT
  REPORT WEATHER SUCH AS PRECIPITATION OR FOG.

INZ001>027-241900-
NORTHERN INDIANA

CITY           SKY/WX    TMP DP  RH WIND       PRES   REMARKS
GARY*          PTSUNNY   64  50  59 S5        30.03F
SOUTH BEND     CLOUDY    62  50  64 SW8       30.03F
6HR MIN TEMP:  50; 6HR MAX TEMP:  62;

ELKHART*       SUNNY     63  48  59 S6        30.02F
GOSHEN         SUNNY     60  49  66 S7        30.03F
6HR MIN TEMP:  47; 6HR MAX TEMP:  61;

ANGOLA*          N/A     57  46  67 SW5       30.04F
FORT WAYNE     CLOUDY    58  47  66 SW5       30.06F
6HR MIN TEMP:  41; 6HR MAX TEMP:  58;

PERU/GRISSOM   SUNNY     62  57  83 SW7       30.04F
6HR MIN TEMP:  47; 6HR MAX TEMP:  62;


$$
INZ028>050-241900-
CENTRAL INDIANA

CITY           SKY/WX    TMP DP  RH WIND       PRES   REMARKS
LAFAYETTE      SUNNY     63  52  67 SW8       30.05F
6HR MIN TEMP:  47; 6HR MAX TEMP:  63;

KOKOMO*        MOSUNNY   63  52  67 SW6       30.06F
6HR MIN TEMP:  46; 6HR MAX TEMP:  63;

MUNCIE*        CLOUDY    62  44  51 W7        30.06F
6HR MIN TEMP:  43; 6HR MAX TEMP:  63;

INDIANAPOLIS   PTSUNNY   58  49  72 VRB3      30.07F
6HR MIN TEMP:  40; 6HR MAX TEMP:  59;


$$
MIZ043>046-050>051-056>058-064>065-071>073-077>080-241900-
SOUTHWEST LOWER MICHIGAN

CITY           SKY/WX    TMP DP  RH WIND       PRES   REMARKS
BATTLE CREEK   CLOUDY    60  48  64 S7        30.02F
6HR MIN TEMP:  47; 6HR MAX TEMP:  60;

BENTON HARBOR  PTSUNNY   57  49  74 SW8       30.02F
6HR MIN TEMP:  47; 6HR MAX TEMP:  58;

COLDWATER*     CLOUDY    58  48  70 SW7       30.03F
6HR MIN TEMP:  47; 6HR MAX TEMP:  58;

HILLSDALE*     CLOUDY    56  46  70 CALM      30.03F
6HR MIN TEMP:  37; 6HR MAX TEMP:  56;

HOLLAND        PTSUNNY   59  51  75 W13       30.03F
6HR MIN TEMP:  51; 6HR MAX TEMP:  61;

GRAND RAPIDS   PTSUNNY   60  50  69 SW12      30.01F
6HR MIN TEMP:  50; 6HR MAX TEMP:  62;

KALAMAZOO      MOSUNNY   60  48  64 S6        30.02F
6HR MIN TEMP:  48; 6HR MAX TEMP:  60;

STURGIS*       MOSUNNY   57  48  72 S7        30.02F
THREE RIVERS*  FAIR      61  50  66 S6        30.02F
6HR MIN TEMP:  47; 6HR MAX TEMP:  61;


$$
OHZ001>008-015>018-024>025-241900-
NORTHWEST OHIO

CITY           SKY/WX    TMP DP  RH WIND       PRES   REMARKS
DEFIANCE       CLOUDY    56  46  69 VRB5      30.06F
6HR MIN TEMP:  35; 6HR MAX TEMP:  57;

FINDLAY        PTSUNNY   62  43  49 VRB5      30.04F
6HR MIN TEMP:  37; 6HR MAX TEMP:  62;

TOLEDO EXPRESS CLOUDY    59  43  55 SW8       30.04F
6HR MIN TEMP:  33; 6HR MAX TEMP:  60;

TOLEDO METCALF CLOUDY    60  42  51 W8        30.05F
6HR MIN TEMP:  38; 6HR MAX TEMP:  61;

LIMA           SUNNY     62  43  49 W6        30.05F
6HR MIN TEMP:  39; 6HR MAX TEMP:  62;


$$
AND FOR LAKE MICHIGAN COASTAL AND OPEN LAKE BUOY OBSERVATIONS

STATION/POSITION TEMP    WIND        PRES    VSBY  WAVE
                 AIR SEA DIR/SP/G                  HT/PER
                 (F)     (DEG/KT/KT) (MB)    (MI)  (FT/S)
CALUMET HARBOR    61     250/  5/  8 1015.7F
MICHIGAN CITY     54     240/  5/  5   N/A
SAINT JOSEPH      57                 1018.3F
SOUTH LAKE BUOY   52 54  240/  8/ 10 1017.5F         1
MICHIGAN CITY CG     57                N/A    3 1/2  2

$$
&&



USA.gov is the U.S. government's official web portal to all federal, state and local government web resources and services.